Terminal Aerodrome Forecast
Issued by NWS Springfield, MO

Home | Current Version | Previous Version | Text Only | Print | Product List | Glossary On
Versions: 1 2 3 4 5 6 7 8 9 10 11 12 13 14
000
FTUS43 KSGF 260500
TAFSGF
TAF
KSGF 260520Z 2606/2706 16008KT P6SM SKC
     FM261800 12006KT P6SM SKC=

USA.gov is the U.S. government's official web portal to all federal, state and local government web resources and services.